sat.trackr.live / text

‹ back to catalog

STARLINK-36404

NORAD 67664 · 2026-022S

PAYLOAD ACTIVE UNKNOWN

§ Identity

Operator
Country
US
Launch date
2026-02-02
Launch site
AFWTR
Launch vehicle
Mass (kg)
RCS (m²)

Purposes: comms

External: N2YO · Heavens-Above · Gunter

§ Orbital elements

Epoch: 2026-09-19T20:29:58.939296Z

Period
93.91 min
Inclination
97.2860°
Eccentricity
0.0000855
Mean motion
15.33447203 rev/d
Perigee alt
465.0 km
Apogee alt
466.1 km
Semi-major
6,843.7 km
B*
3.5178e-4
RAAN
294.3567°
Arg perigee
107.6439°
Mean anomaly
252.4898°
Rev number
3,532

§ Raw data

STARLINK-364041 67664U 26022S   26262.85415439  .00011299  00000+0  35178-3 0  99962 67664  97.2860 294.3567 0000855 107.6439 252.4898 15.33447203 35320

JSON: /api/v1/satellites/67664 · /tle

For live sub-satellite position, see the globe view (requires WebGL).

§ Visibility from observer

Set your observer location to see the next 7 days of passes ≥ 10°. The values pass through the URL so the page stays shareable.

No JS? Fill the form by hand. The geolocation button needs JavaScript.